Overview Statistics Trail Chart Weather Telemetry Raw packets
 

This is the latest recevied weather packets stored in our database for station/object K5SVV. If no packets are shown the sender has not sent any weather packets the latest 10 day(s).

<< 87 88 89 90 91 92 93 >>
Time Temp. Humidity Pressure Rain* Wind** Luminosity Snow
1788050234 35.56° C 40% 1013.3 hPa 0 mm - 18 W/m² -
1788049929 35.56° C 40% 1013 hPa 0 mm - 24 W/m² -
1788049627 35.56° C 39% 1013.1 hPa 0 mm - 32 W/m² -
1788049323 36.11° C 38% 1013.2 hPa 0 mm - 43 W/m² -
1788049022 36.11° C 38% 1013.1 hPa 0 mm - 49 W/m² -
1788048719 36.11° C 37% 1013.1 hPa 0 mm - 52 W/m² -
1788048417 36.11° C 37% 1013.2 hPa 0 mm - 49 W/m² -
1788048111 36.67° C 38% 1013.2 hPa 0 mm - 52 W/m² -
1788047808 36.67° C 37% 1013 hPa 0 mm - 57 W/m² -
1788047508 36.67° C 37% 1013 hPa 0 mm - 49 W/m² -
1788047203 37.22° C 36% 1013 hPa 0 mm - 54 W/m² -
1788046898 37.22° C 36% 1013.1 hPa 0 mm - 98 W/m² -
1788046596 37.22° C 36% 1013.1 hPa 0 mm - 115 W/m² -
1788046292 37.22° C 35% 1013 hPa 0 mm - 139 W/m² -
1788045990 37.78° C 35% 1013.3 hPa 0 mm - 87 W/m² -
1788045686 37.22° C 35% 1013.2 hPa 0 mm - 186 W/m² -
1788045380 37.22° C 36% 1012.9 hPa 0 mm - 199 W/m² -
1788045075 37.78° C 34% 1013.2 hPa 0 mm - 115 W/m² -
1788044774 37.22° C 34% 1013.1 hPa 0 mm - 227 W/m² -
1788044464 36.67° C 35% 1013.4 hPa 0 mm - 232 W/m² -
1788044164 36.67° C 36% 1013.3 hPa 0 mm - 84 W/m² -
1788043859 36.67° C 35% 1013.5 hPa 0 mm - 87 W/m² -
1788043554 37.22° C 36% 1013.2 hPa 0 mm - 92 W/m² -
1788043253 38.33° C 34% 1013.2 hPa 0 mm - 227 W/m² -
1788042949 38.33° C 34% 1013.1 hPa 0 mm - 344 W/m² -

* Rain latest hour (hover to see other rain measurements)
** Current wind speed in m/s (hover to see current wind gust speed)